Tracking 18796 objects as of 19-September-2017
HD Live streaming from Space Station
objects crossing your sky now

INTERBALL AURORA

Track INTERBALL AURORA now!
10-day predictions
INTERBALL AURORA is classified as:


NORAD ID: 24293
Int'l Code: 1996-050C
Perigee: 1,445.2 km
Apogee: 18,541.8 km
Inclination: 63.5 °
Period: 347.2 minutes
Semi major axis: 16364 km
RCS: 12.5524 m2 (large)
Launch date: August 29, 1996
Source: Commonwealth of Independent States (former USSR) (CIS)
Launch site: PLESETSK MISSILE AND SPACE COMPLEX (PKMTR)
aabbcc
Your satellite tracking list
Your tracking list is empty





NASA's NSSDC Master Catalog

Two Line Element Set (TLE):
1 24293U 96050C   17262.08039360 -.00000004  00000-0  00000+0 0  9991
2 24293  63.5281 178.7328 5223706 237.4870  61.3804  4.14714112318963
Source of the keplerian elements: AFSPC